Waarnemingen

Advertentie
Mijn weer
Asturias/Aviles, Spanje (8011): temperatuur & dauwpunt: 17.07.2019 13:00:00 - 23.07.2019 13:00:00 (CEST)Asturias/Aviles, Spanje (8011): windsnelheid & windstoten: 17.07.2019 13:00:00 - 23.07.2019 13:00:00 (CEST)Asturias/Aviles, Spanje (8011): windrichting: 17.07.2019 13:00:00 - 23.07.2019 13:00:00 (CEST)Asturias/Aviles, Spanje (8011): luchtdruk: 17.07.2019 13:00:00 - 23.07.2019 13:00:00 (CEST)Asturias/Aviles, Spanje (8011): zicht: 17.07.2019 13:00:00 - 23.07.2019 13:00:00 (CEST)
Datum & Tijd tt [°C] td [°C] ff [km/u] ff [kn] fx [km/u] fx [kn] dd ppp [hPa] vv [km]
23.07.2019 13:00:00 20,8 19,5 8 4 - - NW 1014,5 -
23.07.2019 12:00:00 22,5 20,5 5 3 - - NNW 1013,6 -
23.07.2019 11:00:00 21,3 19,8 4 2 - - WNW 1014,3 -
23.07.2019 10:00:00 19,2 19,0 13 7 - - WNW 1014,9 -
23.07.2019 09:00:00 20,4 19,6 8 4 - - ZZW 1014,3 -
23.07.2019 08:00:00 19,9 19,4 4 2 - - ZZW 1014,2 5
23.07.2019 07:00:00 19,3 19,0 5 3 - - ZW 1014,5 -
23.07.2019 06:00:00 19,4 18,9 5 3 - - ZW 1014,5 -
23.07.2019 05:00:00 20,1 19,4 8 4 - - ZW 1015,2 -
23.07.2019 04:00:00 20,0 19,6 2 1 - - ZO 1015,7 -
23.07.2019 03:00:00 20,0 19,7 4 2 - - ZO 1016,0 -
23.07.2019 02:00:00 19,7 19,5 4 2 - - ONO 1016,5 5
23.07.2019 01:00:00 19,4 19,1 4 2 - - WZW 1016,3 -
23.07.2019 00:00:00 20,1 19,6 11 6 - - OZO 1017,4 -
22.07.2019 23:00:00 20,4 19,7 13 7 - - O 1018,0 9
22.07.2019 22:00:00 20,6 19,6 11 6 - - OZO 1017,9 -
22.07.2019 21:00:00 20,6 19,8 11 6 - - OZO 1017,9 -
22.07.2019 20:00:00 20,8 19,8 9 5 - - O 1018,0 12
22.07.2019 19:00:00 22,6 20,0 13 7 - - O 1018,1 -
22.07.2019 18:00:00 22,1 19,3 11 6 - - O 1018,6 -
22.07.2019 17:00:00 21,8 19,4 18 10 - - O 1019,0 20
22.07.2019 16:00:00 22,4 19,9 18 10 - - ONO 1019,3 -
22.07.2019 15:00:00 22,5 19,7 13 7 - - ONO 1019,5 -
22.07.2019 14:00:00 22,5 19,6 13 7 - - O 1019,8 15
22.07.2019 13:00:00 22,3 19,3 13 7 - - O 1020,4 -
22.07.2019 12:00:00 22,2 19,4 15 8 - - ONO 1020,6 -
22.07.2019 11:00:00 21,7 19,6 9 5 - - O 1020,8 12
22.07.2019 10:00:00 21,1 18,9 11 6 - - OZO 1021,0 -
22.07.2019 09:00:00 20,5 18,6 13 7 - - O 1021,1 -
22.07.2019 08:00:00 20,2 18,5 13 7 - - O 1021,3 15
22.07.2019 07:00:00 20,1 18,5 11 6 - - O 1021,3 -
22.07.2019 06:00:00 20,0 18,7 11 6 - - O 1021,4 -
22.07.2019 05:00:00 20,1 18,9 11 6 - - O 1021,7 -
22.07.2019 04:00:00 20,2 18,9 9 5 - - O 1021,8 -
22.07.2019 03:00:00 20,2 18,9 9 5 - - OZO 1022,2 -
22.07.2019 02:00:00 20,3 19,0 15 8 - - ZO 1022,8 15
22.07.2019 01:00:00 20,4 19,2 13 7 - - O 1023,3 -
22.07.2019 00:00:00 20,3 18,9 16 9 - - O 1023,6 -
21.07.2019 23:00:00 20,3 18,4 15 8 - - O 1023,5 18
21.07.2019 22:00:00 20,3 18,5 11 6 - - O 1023,1 -
21.07.2019 21:00:00 20,6 19,2 15 8 - - O 1022,8 -
21.07.2019 20:00:00 21,0 19,1 15 8 - - O 1022,4 20
21.07.2019 19:00:00 20,9 19,2 16 9 - - O 1022,4 -
21.07.2019 18:00:00 20,9 19,3 9 5 - - O 1022,7 -
21.07.2019 17:00:00 20,7 19,3 9 5 - - O 1022,9 -
21.07.2019 16:00:00 20,1 19,1 11 6 - - O 1023,0 -
21.07.2019 15:00:00 19,3 18,6 8 4 - - ONO 1022,8 -
21.07.2019 14:00:00 19,2 18,9 9 5 - - ONO 1022,4 2,5
21.07.2019 13:00:00 19,0 18,7 5 3 - - O 1022,8 -
21.07.2019 12:00:00 18,6 18,2 5 3 - - NO 1022,7 -
21.07.2019 11:00:00 18,6 18,1 4 2 - - NNW 1022,7 4,0
21.07.2019 10:00:00 18,2 17,8 2 1 - - W 1022,6 -
21.07.2019 09:00:00 17,8 17,4 2 1 - - ZZW 1022,3 -
21.07.2019 08:00:00 17,9 17,3 4 2 - - ZW 1021,7 3,0
21.07.2019 07:00:00 18,0 16,8 4 2 - - ZW 1021,3 -
21.07.2019 06:00:00 18,0 16,8 4 2 - - ZW 1021,1 -
21.07.2019 05:00:00 18,0 16,8 5 3 - - ZW 1021,2 -
21.07.2019 04:00:00 18,1 16,9 8 4 - - Z 1021,4 -
21.07.2019 03:00:00 18,0 16,9 5 3 - - ZZW 1021,5 -
21.07.2019 02:00:00 18,2 17,0 0 0 - - N 1021,8 15
21.07.2019 01:00:00 18,2 17,0 5 3 - - ZZW 1022,0 -
21.07.2019 00:00:00 18,2 17,0 8 4 - - ZW 1022,0 -
20.07.2019 23:00:00 18,4 17,3 4 2 - - ZW 1022,0 15
20.07.2019 22:00:00 18,6 17,4 9 5 - - W 1021,3 -
20.07.2019 21:00:00 18,8 17,6 9 5 - - W 1020,8 -
20.07.2019 20:00:00 19,2 17,9 9 5 - - WNW 1020,2 20
20.07.2019 19:00:00 19,7 18,0 9 5 - - WNW 1019,7 -
20.07.2019 18:00:00 19,9 18,2 8 4 - - WNW 1019,5 -
20.07.2019 17:00:00 20,8 18,6 8 4 - - WNW 1019,1 20
20.07.2019 16:00:00 21,8 18,6 11 6 - - NW 1018,9 -
20.07.2019 15:00:00 22,3 18,8 11 6 - - NNW 1018,4 -
20.07.2019 14:00:00 22,4 18,5 11 6 - - NW 1017,9 28
20.07.2019 13:00:00 22,6 17,2 11 6 - - NW 1017,6 -
20.07.2019 12:00:00 22,5 17,3 9 5 - - NW 1017,2 -
20.07.2019 11:00:00 21,9 17,7 9 5 - - NW 1016,7 20
20.07.2019 10:00:00 20,5 17,4 4 2 - - ZZW 1016,6 -
20.07.2019 09:00:00 19,2 17,3 5 3 - - ZW 1016,2 -
20.07.2019 08:00:00 18,0 17,2 9 5 - - W 1015,9 10
20.07.2019 07:00:00 17,5 16,7 8 4 - - W 1015,8 -
20.07.2019 06:00:00 17,8 16,8 9 5 - - W 1015,6 -
20.07.2019 05:00:00 17,4 16,4 5 3 - - WZW 1015,3 -
20.07.2019 04:00:00 17,9 16,6 8 4 - - WNW 1015,2 -
20.07.2019 03:00:00 17,5 16,7 0 0 - - N 1015,1 -
20.07.2019 02:00:00 17,5 16,5 0 0 - - N 1015,0 25
20.07.2019 01:00:00 18,2 17,2 8 4 - - WNW 1015,3 -
20.07.2019 00:00:00 17,9 17,1 4 2 - - W 1015,3 -
19.07.2019 23:00:00 18,4 17,6 2 1 - - WZW 1015,3 20
19.07.2019 22:00:00 18,8 17,6 8 4 - - WNW 1015,1 -
19.07.2019 21:00:00 20,8 17,8 5 3 - - N 1014,7 -
19.07.2019 20:00:00 21,6 18,2 8 4 - - N 1014,3 30
19.07.2019 19:00:00 22,0 18,1 8 4 - - NNO 1014,2 -
19.07.2019 18:00:00 22,6 18,4 11 6 - - NO 1014,2 -
19.07.2019 17:00:00 23,0 18,4 15 8 - - O 1014,3 30
19.07.2019 16:00:00 22,5 17,6 15 8 - - O 1014,9 -
19.07.2019 15:00:00 22,3 18,3 11 6 - - NO 1015,4 -
19.07.2019 14:00:00 22,6 18,3 15 8 - - O 1015,6 30
19.07.2019 13:00:00 22,3 17,8 15 8 - - ONO 1015,7 -
19.07.2019 12:00:00 20,5 16,7 11 6 - - NNO 1015,9 -
19.07.2019 11:00:00 20,2 16,1 5 3 - - NNO 1016,0 25
19.07.2019 10:00:00 19,7 15,6 4 2 - - NNO 1016,6 -
19.07.2019 09:00:00 17,7 15,5 13 7 - - ZZW 1016,7 -
19.07.2019 08:00:00 16,2 14,9 9 5 - - ZZW 1016,9 20
19.07.2019 07:00:00 15,8 14,7 11 6 - - ZZW 1016,9 -
19.07.2019 06:00:00 15,9 15,0 13 7 - - ZZW 1017,1 -
19.07.2019 05:00:00 15,8 15,0 8 4 - - ZZW 1017,5 -
19.07.2019 04:00:00 16,4 15,6 9 5 - - ZZW 1018,2 -
19.07.2019 03:00:00 16,5 15,7 5 3 - - ZZW 1018,8 -
19.07.2019 02:00:00 17,0 16,0 4 2 - - Z 1019,1 20
19.07.2019 01:00:00 17,6 16,3 4 2 146 79 ZZO 1019,3 -
19.07.2019 00:00:00 18,4 16,6 4 2 - - ZZO 1019,4 -
18.07.2019 23:00:00 17,8 16,3 8 4 - - ZO 1019,5 20
18.07.2019 22:00:00 18,6 16,2 4 2 - - NW 1019,3 -
18.07.2019 21:00:00 19,9 16,7 2 1 - - NNO 1019,2 -
18.07.2019 20:00:00 20,2 16,4 5 3 - - N 1019,0 35
18.07.2019 19:00:00 20,5 16,4 5 3 - - N 1018,8 -
18.07.2019 18:00:00 20,4 15,7 8 4 - - NNW 1019,0 -
18.07.2019 17:00:00 20,2 15,7 8 4 - - NNW 1019,2 30
18.07.2019 16:00:00 19,9 15,9 11 6 - - NNW 1019,5 -
18.07.2019 15:00:00 20,1 15,0 9 5 - - NNW 1019,7 -
18.07.2019 14:00:00 20,1 15,5 11 6 - - NNW 1019,8 25
18.07.2019 13:00:00 19,3 15,5 11 6 - - NNW 1019,9 -
18.07.2019 12:00:00 19,3 15,2 8 4 - - NW 1019,8 -
18.07.2019 11:00:00 18,6 15,0 8 4 - - NW 1020,1 20
18.07.2019 10:00:00 17,4 15,6 8 4 - - W 1020,0 -
18.07.2019 09:00:00 16,6 15,6 8 4 - - WZW 1019,7 -
18.07.2019 08:00:00 15,7 15,4 4 2 - - WZW 1019,5 18
18.07.2019 07:00:00 15,1 14,6 8 4 - - ZW 1019,2 -
18.07.2019 06:00:00 15,6 15,1 8 4 - - ZW 1019,3 -
18.07.2019 05:00:00 16,0 15,2 4 2 - - ZW 1019,5 -
18.07.2019 04:00:00 16,8 15,5 0 0 - - N 1020,1 -
18.07.2019 03:00:00 16,8 15,5 0 0 - - N 1020,5 -
18.07.2019 02:00:00 16,7 15,4 0 0 - - N 1020,6 15
18.07.2019 01:00:00 16,6 15,3 9 5 - - ZZW 1020,5 -
18.07.2019 00:00:00 17,3 15,6 8 4 - - ZZW 1020,7 -
17.07.2019 23:00:00 17,6 15,8 0 0 - - N 1020,6 15
17.07.2019 22:00:00 17,9 15,3 0 0 - - N 1020,3 -
17.07.2019 21:00:00 18,2 15,9 0 0 - - N 1020,0 -
17.07.2019 20:00:00 18,8 16,0 4 2 - - WNW 1019,8 20
17.07.2019 19:00:00 19,3 16,4 4 2 - - NW 1019,7 -
17.07.2019 18:00:00 19,6 15,7 5 3 - - NNO 1019,8 -
17.07.2019 17:00:00 20,0 16,4 5 3 - - NNW 1019,9 20
17.07.2019 16:00:00 20,0 16,1 4 2 - - NO 1019,9 -
17.07.2019 15:00:00 19,7 16,6 5 3 - - N 1019,7 -
17.07.2019 14:00:00 19,1 16,7 0 0 - - N 1019,8 12
17.07.2019 13:00:00 18,8 16,5 4 2 - - NW 1019,8 -

tt = temperatuur
td = dauwpunt
ff = windsnelheid
fx = windstoten
dd = windrichting
ppp = luchtdruk
vv = zicht

Weerstations in de omgeving